K0GDI Weather Reports


Display with metric or nautical units.
time (UTC)temp
F
wind
direction
speed
MPH
gust
MPH
rain 1hr
in
rain 24hr
in
rain mn
in
humidity
%
barometer
mb
20260901123843 74 128 1.0 2.0 0.00 0.00 0.00 81 1015.5
20260901122825 73 150 1.0 2.0 0.00 0.00 0.00 84 1015.5
20260901121806 72 110 1.0 1.0 0.00 0.00 0.00 88 1015.5
20260901120750 70 101 1.0 1.0 0.00 0.00 0.00 93 1015.5
20260901110604 70 205 1.0 1.0 0.00 0.00 0.00 95 1015.5
20260901104540 69 193 1.0 1.0 0.00 0.00 0.00 96 1015.5
20260901102533 70 145 1.0 1.0 0.00 0.00 0.00 94 1015.5
20260901095524 70 137 1.0 1.0 0.00 0.00 0.00 93 1015.5
20260901094511 70 167 1.0 1.0 0.00 0.00 0.00 93 1015.5
20260901093500 71 152 1.0 1.0 0.00 0.00 0.00 92 1015.5
20260901092448 71 196 1.0 1.0 0.00 0.00 0.00 92 1015.5
20260901091436 71 224 1.0 1.0 0.00 0.00 0.00 92 1015.5
20260901085413 71 162 0.0 1.0 0.00 0.00 0.00 90 1015.5
20260901084402 71 288 1.0 1.0 0.00 0.00 0.00 90 1015.5
20260901083350 71 324 1.0 1.0 0.00 0.00 0.00 91 1015.5
20260901082338 72 149 1.0 1.0 0.00 0.00 0.00 91 1015.5
20260901081327 72 230 1.0 1.0 0.00 0.00 0.00 90 1015.5
20260901080315 72 214 1.0 1.0 0.00 0.00 0.00 87 1015.5
20260901075307 72 307 1.0 1.0 0.00 0.00 0.00 86 1015.5
20260901074252 72 288 1.0 1.0 0.00 0.00 0.00 86 1015.5
20260901070207 73 303 1.0 1.0 0.00 0.00 0.00 84 1015.5
20260901065154 74 228 1.0 1.0 0.00 0.00 0.00 84 1015.5
20260901064143 74 317 1.0 1.0 0.00 0.00 0.00 83 1015.5
20260901063131 74 48 1.0 1.0 0.00 0.00 0.00 82 1015.5
20260901062121 75 141 1.0 2.0 0.00 0.00 0.00 81 1015.5
20260901060057 76 148 2.0 3.0 0.00 0.00 0.00 79 1015.5
20260901054050 76 156 2.0 3.0 0.00 0.00 0.00 79 1015.5
20260901053039 76 152 2.0 3.0 0.00 0.00 0.00 79 1015.5
20260901052027 76 150 2.0 3.0 0.00 0.00 0.00 80 1015.5
20260901051015 76 149 2.0 3.0 0.00 0.00 0.00 80 1015.5
20260901043941 77 153 2.0 4.0 0.00 0.00 0.00 76 1015.5
20260901041918 78 155 3.0 4.0 0.00 0.00 0.00 75 1015.5
20260901040906 78 154 3.0 3.0 0.00 0.00 0.00 74 1015.5
20260901035855 79 151 3.0 5.0 0.00 0.00 0.00 73 1015.5
20260901034843 79 154 3.0 5.0 0.00 0.00 0.00 72 1015.5
20260901033831 79 152 3.0 5.0 0.00 0.00 0.00 71 1015.5
20260901032820 80 152 4.0 6.0 0.00 0.00 0.00 71 1015.5
20260901031808 80 150 3.0 5.0 0.00 0.00 0.00 70 1015.5
20260901030757 80 153 3.0 4.0 0.00 0.00 0.00 70 1015.5
20260901024734 80 151 3.0 6.0 0.00 0.00 0.00 70 1015.5
20260901021714 80 152 3.0 4.0 0.00 0.00 0.00 72 1015.5
20260901020703 79 154 2.0 3.0 0.00 0.00 0.00 74 1015.5
20260901015651 79 150 2.0 3.0 0.00 0.00 0.00 75 1015.5
20260901013644 80 158 2.0 2.0 0.00 0.00 0.00 74 1015.5
20260901012633 80 160 1.0 2.0 0.00 0.00 0.00 72 1015.5
20260901011622 81 163 1.0 2.0 0.00 0.00 0.00 72 1015.5
20260901010610 81 160 1.0 2.0 0.00 0.00 0.00 71 1015.5
20260901004604 82 148 1.0 3.0 0.00 0.00 0.00 71 1017.0
20260901003552 83 153 1.0 2.0 0.00 0.00 0.00 69 1017.0
20260901002540 85 191 1.0 1.0 0.00 0.00 0.00 64 1017.0
20260901001529 87 199 1.0 2.0 0.00 0.00 0.00 59 1017.0
20260901000517 88 176 1.0 2.0 0.00 0.00 0.00 56 1017.0
20260831235506 89 166 2.0 5.0 0.00 0.00 0.00 54 1017.0
20260831234454 89 157 3.0 6.0 0.00 0.00 0.00 53 1017.0
20260831233442 90 154 2.0 6.0 0.00 0.00 0.00 54 1017.0
20260831232430 90 159 2.0 5.0 0.00 0.00 0.00 52 1017.0
20260831231419 91 151 3.0 8.0 0.00 0.00 0.00 50 1017.0
20260831230406 91 151 3.0 9.0 0.00 0.00 0.00 51 1017.0
20260831223331 93 146 3.0 9.0 0.00 0.00 0.00 47 1017.0
20260831222320 93 146 4.0 10.0 0.00 0.00 0.00 45 1017.0
20260831220256 94 147 3.0 9.0 0.00 0.00 0.00 43 1017.0
20260831215245 94 148 4.0 8.0 0.00 0.00 0.00 43 1017.0
20260831214234 95 148 3.0 9.0 0.00 0.00 0.00 42 1017.0
20260831213222 96 157 2.0 7.0 0.00 0.00 0.00 41 1017.0
20260831212210 96 150 3.0 10.0 0.00 0.00 0.00 42 1017.0
20260831211158 97 148 2.0 9.0 0.00 0.00 0.00 40 1017.0
20260831210146 97 147 2.0 7.0 0.00 0.00 0.00 41 1017.0
20260831205135 97 136 2.0 6.0 0.00 0.00 0.00 41 1017.0
20260831204123 96 152 3.0 8.0 0.00 0.00 0.00 43 1017.0
20260831203112 97 152 3.0 10.0 0.00 0.00 0.00 41 1017.0
20260831202100 96 149 3.0 9.0 0.00 0.00 0.00 41 1017.0
20260831201049 96 141 5.0 10.0 0.00 0.00 0.00 42 1017.0
20260831200037 96 134 4.0 9.0 0.00 0.00 0.00 39 1017.0
20260831193009 98 157 2.0 5.0 0.00 0.00 0.00 35 1017.0
20260831191957 97 134 3.0 9.0 0.00 0.00 0.00 40 1017.0
20260831190946 98 152 2.0 9.0 0.00 0.00 0.00 38 1017.0
20260831185934 96 142 4.0 10.0 0.00 0.00 0.00 40 1017.0
20260831184922 98 50 2.0 7.0 0.00 0.00 0.00 39 1017.0
20260831183911 98 357 1.0 4.0 0.00 0.00 0.00 38 1017.0
20260831182900 96 136 3.0 8.0 0.00 0.00 0.00 42 1017.0
20260831181848 97 144 2.0 5.0 0.00 0.00 0.00 39 1017.0
20260831180836 97 131 2.0 7.0 0.00 0.00 0.00 41 1017.0
20260831175825 96 185 2.0 5.0 0.00 0.00 0.00 40 1017.0
20260831174813 95 144 3.0 8.0 0.00 0.00 0.00 41 1017.0
20260831173801 95 128 2.0 7.0 0.00 0.00 0.00 42 1017.0
20260831172750 95 143 2.0 6.0 0.00 0.00 0.00 41 1017.0
20260831171738 94 153 3.0 11.0 0.00 0.00 0.00 44 1017.0
20260831170726 94 145 2.0 6.0 0.00 0.00 0.00 44 1017.0
20260831165715 93 143 2.0 6.0 0.00 0.00 0.00 46 1017.0
20260831164703 94 168 2.0 7.0 0.00 0.00 0.00 45 1017.0
20260831163652 93 288 2.0 7.0 0.00 0.00 0.00 43 1017.0
20260831161629 93 173 2.0 6.0 0.00 0.00 0.00 44 1017.0
20260831160617 93 136 2.0 5.0 0.00 0.00 0.00 46 1017.0
20260831155605 92 170 2.0 5.0 0.00 0.00 0.00 45 1017.0
20260831154554 91 148 2.0 8.0 0.00 0.00 0.00 47 1017.0
20260831153542 91 142 2.0 6.0 0.00 0.00 0.00 47 1017.0
20260831152531 90 161 2.0 6.0 0.00 0.00 0.00 48 1017.0
20260831150525 89 150 2.0 6.0 0.00 0.00 0.00 47 1017.0
20260831143450 87 152 3.0 8.0 0.00 0.00 0.00 51 1017.0
20260831142451 86 151 2.0 9.0 0.00 0.00 0.00 51 1017.0
20260831141440 85 156 3.0 7.0 0.00 0.00 0.00 52 1017.0
20260831135417 83 136 2.0 5.0 0.00 0.00 0.00 57 1017.0
20260831133355 81 130 1.0 4.0 0.00 0.00 0.00 56 1017.0
20260831132343 80 127 2.0 4.0 0.00 0.00 0.00 58 1017.0
20260831131331 79 120 1.0 3.0 0.00 0.00 0.00 61 1017.0
20260831125308 76 96 1.0 2.0 0.00 0.00 0.00 63 1017.0